Location: Artiguedieu
(43.5000°N, 0.5454°E)
Time: 19:00:14
(UTC+00:00)

Transit 2A - Pass Details

Date: 24 July 2021
Orbit: 594 x 964 km, 66.7° (Epoch: 28 September)

Event Time Altitude Azimuth Distance (km) Brightness Sun altitude
Rises 08:00:54 0° 207° (SSW) 2,818 8.7 34.4°
Reaches altitude 10° 08:03:05 10° 207° (SSW) 1,927 8.0 34.8°
Maximum altitude 08:07:23 83° 120° (ESE) 623 6.4 35.6°
Drops below altitude 10° 08:11:57 10° 33° (NNE) 2,045 8.6 36.4°
Sets 08:14:20 0° 33° (NNE) 3,006 9.4 36.8°
